Ord, NE

11:29 AM CDT on May 26, 2018 (GMT -0500)
Sharp

Weather History for KODX - April, 2011

Change the Weather History Date:

Saturday, April 30, 2011

  Actual Average Record
Temperature  
Mean Temperature 49 °F 54 °F  
Max Temperature 59 °F 66 °F 86 °F (2007)
Min Temperature 39 °F 41 °F 30 °F (2005)
Degree Days  
Heating Degree Days 16 12  
Month to date heating degree days 527 489  
Since 1 July heating degree days 6654 6353  
Cooling Degree Days 0 0  
Month to date cooling degree days 0 2  
Year to date cooling degree days 0 2  
Moisture  
Dew Point 30 °F    
Average Humidity 60    
Maximum Humidity 92    
Minimum Humidity 27    
Precipitation  
Precipitation 0.03 in 0.11 in 3.74 in (1906)
Month to date precipitation 2.51 2.59  
Year to date precipitation 5.53 4.85  
Sea Level Pressure  
Sea Level Pressure 29.74 in    
Wind  
Wind Speed 17 mph (WNW)    
Max Wind Speed 33 mph    
Max Gust Speed 40 mph    
Visibility 10 miles    
Events Rain    
T = Trace of Precipitation, MM = Missing Value Source: NWS Daily Summary

Daily Weather History Graph

Daily Weather History Graph

Search for Another Location

Airport or City:

Astronomy

Apr. 30, 2011 Rise Set
Actual Time 6:34 AM CDT 8:32 PM CDT
Civil Twilight 6:04 AM CDT 9:02 PM CDT
Nautical Twilight 5:27 AM CDT 9:39 PM CDT
Astronomical Twilight 4:47 AM CDT 10:19 PM CDT
Moon 4:57 AM CDT (4/30) 6:24 PM CDT (4/30)
Length of Visible Light 14h 58m
Length of Day
13h 58m
Waning Crescent, 6% of the Moon is Illuminated
Apr 30
Waning Crescent
May 3
New
May 10
First Quarter
May 17
Full
May 24
Last Quarter

Hourly Weather History & Observations

Time (CDT) Temp. Windchill Dew Point Humidity Pressure Visibility Wind Dir Wind Speed Gust Speed Precip Events Conditions
12:53 AM 43.0 °F 34.8 °F 37.9 °F 82% 29.67 in 10.0 mi NNW 18.4 mph 21.9 mph 0.02 in   Overcast
1:53 AM 42.1 °F 36.6 °F 37.0 °F 82% 29.66 in 10.0 mi North 9.2 mph - 0.00 in   Overcast
2:53 AM 41.0 °F 33.1 °F 37.0 °F 86% 29.67 in 10.0 mi NNW 15.0 mph - 0.02 in Rain Light Rain
3:53 AM 39.9 °F 33.9 °F 37.0 °F 89% 29.68 in 10.0 mi NW 9.2 mph - 0.01 in   Overcast
4:53 AM 39.9 °F 36.7 °F 37.0 °F 89% 29.67 in 10.0 mi SW 4.6 mph - N/A   Overcast
5:53 AM 41.0 °F 36.4 °F 35.1 °F 79% 29.65 in 10.0 mi West 6.9 mph - N/A   Overcast
6:53 AM 39.0 °F 34.0 °F 34.0 °F 82% 29.66 in 10.0 mi West 6.9 mph - N/A   Mostly Cloudy
7:53 AM 43.0 °F 36.0 °F 34.0 °F 71% 29.67 in 10.0 mi West 13.8 mph - N/A   Clear
8:53 AM 46.0 °F 39.0 °F 30.9 °F 56% 29.69 in 10.0 mi West 17.3 mph - N/A   Clear
9:53 AM 51.1 °F - 30.0 °F 44% 29.69 in 10.0 mi West 19.6 mph 27.6 mph N/A   Clear
10:53 AM 53.1 °F - 28.0 °F 38% 29.68 in 10.0 mi West 24.2 mph 34.5 mph N/A   Clear
11:53 AM 55.9 °F - 32.0 °F 40% 29.69 in 10.0 mi West 25.3 mph 34.5 mph N/A   Clear
12:53 PM 57.9 °F - 30.9 °F 36% 29.69 in 10.0 mi West 24.2 mph 34.5 mph N/A   Clear
1:53 PM 57.0 °F - 33.1 °F 40% 29.70 in 10.0 mi NW 25.3 mph 36.8 mph N/A   Clear
2:53 PM 57.0 °F - 30.9 °F 37% 29.72 in 10.0 mi WNW 26.5 mph 33.4 mph N/A   Partly Cloudy
3:53 PM 55.0 °F - 28.0 °F 35% 29.72 in 10.0 mi West 21.9 mph 25.3 mph N/A   Mostly Cloudy
4:53 PM 55.9 °F - 25.0 °F 30% 29.73 in 10.0 mi WNW 24.2 mph 39.1 mph N/A   Mostly Cloudy
5:53 PM 55.0 °F - 23.0 °F 29% 29.77 in 10.0 mi WNW 24.2 mph 32.2 mph N/A   Mostly Cloudy
6:53 PM 53.1 °F - 24.1 °F 32% 29.81 in 10.0 mi WNW 18.4 mph 27.6 mph N/A   Overcast
7:53 PM 51.1 °F - 21.9 °F 32% 29.85 in 10.0 mi WNW 25.3 mph 33.4 mph N/A   Overcast
8:53 PM 48.0 °F - 21.0 °F 34% 29.89 in 10.0 mi NW 18.4 mph 28.8 mph N/A   Clear
9:53 PM 45.0 °F 37.6 °F 21.9 °F 40% 29.93 in 10.0 mi NW 17.3 mph 25.3 mph N/A   Clear
10:53 PM 44.1 °F 36.8 °F 21.0 °F 40% 29.97 in 10.0 mi WNW 16.1 mph - N/A   Clear
11:53 PM 39.9 °F 33.9 °F 21.9 °F 49% 29.98 in 10.0 mi West 9.2 mph - N/A   Clear